| time (UTC) | temp F | wind direction | speed MPH | gust MPH | rain 1hr in | rain 24hr in | rain mn in | humidity % | barometer mb |
| 20260904083318 | 75 | 145 | 0.0 | 0.0 | 0.00 | 0.00 | 0.00 | 79 | 1016.0 |
| 20260904082813 | 76 | 146 | 0.0 | 0.0 | 0.00 | 0.00 | 0.00 | 77 | 1016.0 |
| 20260904082310 | 76 | 145 | 0.0 | 0.0 | 0.00 | 0.00 | 0.00 | 76 | 1015.9 |
| 20260904081827 | 76 | 145 | 0.0 | 0.0 | 0.00 | 0.00 | 0.00 | 76 | 1016.0 |
| 20260904081323 | 76 | 145 | 0.0 | 2.0 | 0.00 | 0.00 | 0.00 | 76 | 1015.9 |
| 20260904080819 | 76 | 145 | 0.0 | 2.0 | 0.00 | 0.00 | 0.00 | 75 | 1015.9 |
| 20260904080315 | 77 | 145 | 0.0 | 2.0 | 0.00 | 0.00 | 0.00 | 75 | 1015.9 |
| 20260904075811 | 77 | 145 | 0.0 | 2.0 | 0.00 | 0.00 | 0.00 | 74 | 1015.9 |
| 20260904075310 | 77 | 145 | 0.0 | 1.0 | 0.00 | 0.00 | 0.00 | 74 | 1015.9 |
| 20260904074847 | 78 | 145 | 0.0 | 2.0 | 0.00 | 0.00 | 0.00 | 73 | 1015.9 |
| 20260904074321 | 78 | 117 | 0.0 | 2.0 | 0.00 | 0.00 | 0.00 | 73 | 1016.0 |
| 20260904073818 | 77 | 230 | 0.0 | 2.0 | 0.00 | 0.00 | 0.00 | 73 | 1015.9 |
| 20260904073313 | 77 | 240 | 0.0 | 2.0 | 0.00 | 0.00 | 0.00 | 73 | 1015.9 |
| 20260904072810 | 78 | 240 | 0.0 | 2.0 | 0.00 | 0.00 | 0.00 | 73 | 1015.9 |
| 20260904072326 | 78 | 240 | 1.0 | 2.0 | 0.00 | 0.00 | 0.00 | 73 | 1015.9 |
| 20260904071822 | 78 | 240 | 0.0 | 2.0 | 0.00 | 0.00 | 0.00 | 73 | 1015.9 |
| 20260904071322 | 78 | 240 | 0.0 | 2.0 | 0.00 | 0.00 | 0.00 | 72 | 1015.9 |
| 20260904070819 | 78 | 205 | 0.0 | 2.0 | 0.00 | 0.00 | 0.00 | 72 | 1015.9 |
| 20260904070315 | 78 | 227 | 0.0 | 2.0 | 0.00 | 0.00 | 0.00 | 72 | 1015.9 |
| 20260904065810 | 78 | 229 | 0.0 | 2.0 | 0.00 | 0.00 | 0.00 | 72 | 1015.8 |
| 20260904065326 | 78 | 229 | 0.0 | 2.0 | 0.00 | 0.00 | 0.00 | 72 | 1015.8 |
| 20260904064843 | 78 | 193 | 0.0 | 2.0 | 0.00 | 0.00 | 0.00 | 71 | 1015.8 |
| 20260904064318 | 79 | 193 | 0.0 | 2.0 | 0.00 | 0.00 | 0.00 | 71 | 1015.9 |
| 20260904063819 | 79 | 125 | 0.0 | 2.0 | 0.00 | 0.00 | 0.00 | 71 | 1015.9 |
| 20260904063315 | 79 | 233 | 0.0 | 2.0 | 0.00 | 0.00 | 0.00 | 71 | 1015.9 |
| 20260904062812 | 79 | 227 | 1.0 | 3.0 | 0.00 | 0.00 | 0.00 | 70 | 1015.9 |
| 20260904062327 | 79 | 150 | 0.0 | 3.0 | 0.00 | 0.00 | 0.00 | 70 | 1015.9 |
| 20260904061824 | 79 | 246 | 1.0 | 3.0 | 0.00 | 0.00 | 0.00 | 70 | 1015.9 |
| 20260904061321 | 79 | 192 | 1.0 | 4.0 | 0.00 | 0.00 | 0.00 | 70 | 1015.9 |
| 20260904060837 | 79 | 222 | 0.0 | 4.0 | 0.00 | 0.00 | 0.00 | 70 | 1016.0 |
| 20260904060312 | 79 | 142 | 0.0 | 2.0 | 0.00 | 0.00 | 0.00 | 70 | 1016.0 |
| 20260904055811 | 79 | 210 | 1.0 | 2.0 | 0.00 | 0.00 | 0.00 | 70 | 1016.0 |
| 20260904055327 | 79 | 238 | 0.0 | 2.0 | 0.00 | 0.00 | 0.00 | 70 | 1016.0 |
| 20260904054844 | 79 | 244 | 0.0 | 2.0 | 0.00 | 0.00 | 0.00 | 70 | 1016.0 |
| 20260904054339 | 79 | 244 | 0.0 | 2.0 | 0.00 | 0.00 | 0.00 | 69 | 1015.9 |
| 20260904053814 | 79 | 170 | 0.0 | 2.0 | 0.00 | 0.00 | 0.00 | 69 | 1016.0 |
| 20260904053311 | 80 | 103 | 0.0 | 2.0 | 0.00 | 0.00 | 0.00 | 69 | 1016.0 |
| 20260904052828 | 80 | 140 | 0.0 | 2.0 | 0.00 | 0.00 | 0.00 | 69 | 1016.0 |
| 20260904052324 | 80 | 140 | 0.0 | 2.0 | 0.00 | 0.00 | 0.00 | 68 | 1016.0 |
| 20260904051824 | 80 | 226 | 1.0 | 2.0 | 0.00 | 0.00 | 0.00 | 68 | 1016.0 |
| 20260904051340 | 80 | 231 | 1.0 | 2.0 | 0.00 | 0.00 | 0.00 | 68 | 1015.9 |
| 20260904050816 | 80 | 241 | 0.0 | 2.0 | 0.00 | 0.00 | 0.00 | 68 | 1015.9 |
| 20260904050332 | 80 | 141 | 0.0 | 3.0 | 0.00 | 0.00 | 0.00 | 68 | 1016.0 |
| 20260904045826 | 80 | 141 | 1.0 | 3.0 | 0.00 | 0.00 | 0.00 | 68 | 1016.0 |
| 20260904045322 | 80 | 200 | 0.0 | 2.0 | 0.00 | 0.00 | 0.00 | 68 | 1015.9 |
| 20260904044817 | 80 | 200 | 0.0 | 2.0 | 0.00 | 0.00 | 0.00 | 67 | 1015.8 |
| 20260904044314 | 80 | 220 | 0.0 | 2.0 | 0.00 | 0.00 | 0.00 | 67 | 1015.9 |
| 20260904043815 | 80 | 220 | 0.0 | 2.0 | 0.00 | 0.00 | 0.00 | 68 | 1015.8 |
| 20260904043332 | 80 | 220 | 0.0 | 2.0 | 0.00 | 0.00 | 0.00 | 67 | 1015.8 |
| 20260904042828 | 81 | 220 | 0.0 | 2.0 | 0.00 | 0.00 | 0.00 | 66 | 1015.8 |
| 20260904042324 | 81 | 220 | 0.0 | 2.0 | 0.00 | 0.00 | 0.00 | 65 | 1015.9 |
| 20260904041820 | 81 | 220 | 0.0 | 2.0 | 0.00 | 0.00 | 0.00 | 65 | 1015.9 |
| 20260904041316 | 81 | 220 | 0.0 | 2.0 | 0.00 | 0.00 | 0.00 | 65 | 1015.9 |
| 20260904040832 | 81 | 220 | 1.0 | 2.0 | 0.00 | 0.00 | 0.00 | 65 | 1015.8 |
| 20260904040327 | 81 | 248 | 1.0 | 2.0 | 0.00 | 0.00 | 0.00 | 66 | 1015.8 |
| 20260904035821 | 81 | 144 | 0.0 | 2.0 | 0.00 | 0.00 | 0.00 | 66 | 1015.8 |
| 20260904035320 | 81 | 144 | 0.0 | 2.0 | 0.00 | 0.00 | 0.00 | 65 | 1015.7 |
| 20260904034817 | 81 | 144 | 0.0 | 2.0 | 0.00 | 0.00 | 0.00 | 64 | 1015.7 |
| 20260904034314 | 82 | 144 | 0.0 | 2.0 | 0.00 | 0.00 | 0.00 | 64 | 1015.8 |
| 20260904033829 | 82 | 144 | 0.0 | 2.0 | 0.00 | 0.00 | 0.00 | 64 | 1015.8 |
| 20260904033345 | 82 | 169 | 0.0 | 2.0 | 0.00 | 0.00 | 0.00 | 63 | 1015.8 |
| 20260904032821 | 83 | 99 | 0.0 | 2.0 | 0.00 | 0.00 | 0.00 | 62 | 1015.8 |
| 20260904032317 | 83 | 99 | 0.0 | 2.0 | 0.00 | 0.00 | 0.00 | 62 | 1015.8 |
| 20260904031813 | 83 | 208 | 0.0 | 2.0 | 0.00 | 0.00 | 0.00 | 61 | 1015.7 |
| 20260904031314 | 83 | 208 | 1.0 | 3.0 | 0.00 | 0.00 | 0.00 | 61 | 1015.7 |
| 20260904030810 | 83 | 165 | 1.0 | 3.0 | 0.00 | 0.00 | 0.00 | 61 | 1015.7 |
| 20260904030326 | 83 | 164 | 0.0 | 2.0 | 0.00 | 0.00 | 0.00 | 60 | 1015.7 |
| 20260904025821 | 84 | 83 | 0.0 | 2.0 | 0.00 | 0.00 | 0.00 | 60 | 1015.7 |
| 20260904025338 | 84 | 149 | 0.0 | 2.0 | 0.00 | 0.00 | 0.00 | 60 | 1015.7 |
| 20260904024814 | 84 | 219 | 0.0 | 2.0 | 0.00 | 0.00 | 0.00 | 60 | 1015.6 |
| 20260904024310 | 84 | 92 | 1.0 | 2.0 | 0.00 | 0.00 | 0.00 | 60 | 1015.6 |
| 20260904023848 | 84 | 188 | 1.0 | 2.0 | 0.00 | 0.00 | 0.00 | 60 | 1015.6 |
| 20260904023343 | 84 | 154 | 0.0 | 3.0 | 0.00 | 0.00 | 0.00 | 60 | 1015.4 |
| 20260904022821 | 84 | 138 | 0.0 | 3.0 | 0.00 | 0.00 | 0.00 | 60 | 1015.4 |
| 20260904022317 | 84 | 115 | 0.0 | 2.0 | 0.00 | 0.00 | 0.00 | 59 | 1015.4 |
| 20260904021811 | 84 | 161 | 0.0 | 2.0 | 0.00 | 0.00 | 0.00 | 59 | 1015.3 |
| 20260904021327 | 84 | 216 | 0.0 | 2.0 | 0.00 | 0.00 | 0.00 | 59 | 1015.3 |
| 20260904020824 | 85 | 215 | 0.0 | 2.0 | 0.00 | 0.00 | 0.00 | 58 | 1015.2 |
| 20260904020320 | 85 | 159 | 1.0 | 2.0 | 0.00 | 0.00 | 0.00 | 58 | 1015.2 |
| 20260904015835 | 85 | 115 | 1.0 | 2.0 | 0.00 | 0.00 | 0.00 | 58 | 1015.1 |
| 20260904015310 | 85 | 186 | 0.0 | 2.0 | 0.00 | 0.00 | 0.00 | 58 | 1015.0 |
| 20260904014810 | 85 | 175 | 0.0 | 2.0 | 0.00 | 0.00 | 0.00 | 58 | 1015.0 |
| 20260904014326 | 85 | 138 | 0.0 | 2.0 | 0.00 | 0.00 | 0.00 | 57 | 1014.9 |
| 20260904013822 | 85 | 138 | 0.0 | 2.0 | 0.00 | 0.00 | 0.00 | 57 | 1014.8 |
| 20260904013318 | 86 | 138 | 0.0 | 2.0 | 0.00 | 0.00 | 0.00 | 57 | 1014.7 |
| 20260904012814 | 86 | 148 | 1.0 | 2.0 | 0.00 | 0.00 | 0.00 | 57 | 1014.7 |
| 20260904012309 | 86 | 99 | 1.0 | 3.0 | 0.00 | 0.00 | 0.00 | 57 | 1014.6 |
| 20260904011826 | 86 | 99 | 0.0 | 3.0 | 0.00 | 0.00 | 0.00 | 57 | 1014.6 |
| 20260904011322 | 86 | 167 | 0.0 | 3.0 | 0.00 | 0.00 | 0.00 | 57 | 1014.4 |
| 20260904010822 | 86 | 167 | 0.0 | 2.0 | 0.00 | 0.00 | 0.00 | 57 | 1014.4 |
| 20260904010338 | 86 | 167 | 0.0 | 2.0 | 0.00 | 0.00 | 0.00 | 57 | 1014.4 |
| 20260904005832 | 86 | 167 | 0.0 | 2.0 | 0.00 | 0.00 | 0.00 | 56 | 1014.3 |
| 20260904005327 | 87 | 167 | 0.0 | 2.0 | 0.00 | 0.00 | 0.00 | 55 | 1014.3 |
| 20260904004823 | 87 | 167 | 0.0 | 2.0 | 0.00 | 0.00 | 0.00 | 54 | 1014.3 |
| 20260904004318 | 88 | 94 | 1.0 | 2.0 | 0.00 | 0.00 | 0.00 | 54 | 1014.3 |
| 20260904003815 | 88 | 82 | 0.0 | 2.0 | 0.00 | 0.00 | 0.00 | 53 | 1014.3 |
| 20260904003310 | 89 | 82 | 0.0 | 2.0 | 0.00 | 0.00 | 0.00 | 51 | 1014.2 |
| 20260904002810 | 90 | 186 | 1.0 | 2.0 | 0.00 | 0.00 | 0.00 | 50 | 1014.2 |
| 20260904002327 | 91 | 186 | 0.0 | 2.0 | 0.00 | 0.00 | 0.00 | 48 | 1014.2 |
| 20260904001823 | 91 | 190 | 1.0 | 2.0 | 0.00 | 0.00 | 0.00 | 47 | 1014.2 |
| 20260904001320 | 91 | 161 | 1.0 | 4.0 | 0.00 | 0.00 | 0.00 | 47 | 1014.2 |
| 20260904000816 | 92 | 187 | 1.0 | 6.0 | 0.00 | 0.00 | 0.00 | 46 | 1014.1 |
| 20260904000312 | 92 | 213 | 2.0 | 6.0 | 0.00 | 0.00 | 0.00 | 45 | 1014.1 |
| 20260903235847 | 93 | 92 | 2.0 | 8.0 | 0.00 | 0.00 | 0.00 | 45 | 1014.1 |
| 20260903235322 | 93 | 163 | 3.0 | 8.0 | 0.00 | 0.00 | 0.00 | 45 | 1014.1 |
| 20260903234823 | 93 | 198 | 2.0 | 7.0 | 0.00 | 0.00 | 0.00 | 45 | 1014.1 |
| 20260903234338 | 94 | 144 | 4.0 | 7.0 | 0.00 | 0.00 | 0.00 | 44 | 1014.0 |
| 20260903233814 | 94 | 209 | 1.0 | 5.0 | 0.00 | 0.00 | 0.00 | 41 | 1014.0 |
| 20260903233331 | 94 | 214 | 1.0 | 5.0 | 0.00 | 0.00 | 0.00 | 41 | 1013.9 |
| 20260903232825 | 94 | 140 | 1.0 | 8.0 | 0.00 | 0.00 | 0.00 | 41 | 1013.9 |
| 20260903232322 | 94 | 224 | 2.0 | 8.0 | 0.00 | 0.00 | 0.00 | 41 | 1013.9 |
| 20260903231840 | 95 | 162 | 2.0 | 5.0 | 0.00 | 0.00 | 0.00 | 41 | 1013.9 |
| 20260903231316 | 95 | 209 | 2.0 | 6.0 | 0.00 | 0.00 | 0.00 | 41 | 1014.0 |
| 20260903230812 | 95 | 109 | 2.0 | 7.0 | 0.00 | 0.00 | 0.00 | 41 | 1014.0 |
| 20260903230312 | 95 | 202 | 2.0 | 7.0 | 0.00 | 0.00 | 0.00 | 41 | 1014.0 |
| 20260903225828 | 95 | 194 | 3.0 | 6.0 | 0.00 | 0.00 | 0.00 | 41 | 1014.0 |
| 20260903225324 | 96 | 234 | 2.0 | 8.0 | 0.00 | 0.00 | 0.00 | 41 | 1013.9 |
| 20260903224841 | 95 | 147 | 4.0 | 7.0 | 0.00 | 0.00 | 0.00 | 40 | 1014.0 |
| 20260903224316 | 96 | 149 | 2.0 | 7.0 | 0.00 | 0.00 | 0.00 | 40 | 1013.9 |
| 20260903223833 | 96 | 71 | 2.0 | 7.0 | 0.00 | 0.00 | 0.00 | 40 | 1013.9 |
| 20260903223328 | 96 | 146 | 2.0 | 8.0 | 0.00 | 0.00 | 0.00 | 40 | 1014.0 |
| 20260903222824 | 96 | 196 | 3.0 | 8.0 | 0.00 | 0.00 | 0.00 | 40 | 1013.9 |
| 20260903222323 | 96 | 180 | 3.0 | 8.0 | 0.00 | 0.00 | 0.00 | 40 | 1013.9 |
| 20260903221838 | 96 | 227 | 3.0 | 8.0 | 0.00 | 0.00 | 0.00 | 39 | 1013.9 |
| 20260903221314 | 96 | 145 | 3.0 | 8.0 | 0.00 | 0.00 | 0.00 | 39 | 1013.9 |
| 20260903220810 | 96 | 311 | 3.0 | 9.0 | 0.00 | 0.00 | 0.00 | 41 | 1013.9 |
| 20260903220325 | 96 | 194 | 3.0 | 9.0 | 0.00 | 0.00 | 0.00 | 40 | 1013.9 |
| 20260903215821 | 96 | 134 | 5.0 | 11.0 | 0.00 | 0.00 | 0.00 | 40 | 1013.9 |
| 20260903215316 | 96 | 139 | 5.0 | 11.0 | 0.00 | 0.00 | 0.00 | 40 | 1013.9 |
| 20260903214812 | 96 | 96 | 5.0 | 9.0 | 0.00 | 0.00 | 0.00 | 42 | 1014.0 |
| 20260903214313 | 96 | 137 | 3.0 | 10.0 | 0.00 | 0.00 | 0.00 | 42 | 1014.0 |
| 20260903213810 | 96 | 170 | 4.0 | 10.0 | 0.00 | 0.00 | 0.00 | 41 | 1014.0 |
| 20260903213347 | 96 | 203 | 3.0 | 9.0 | 0.00 | 0.00 | 0.00 | 44 | 1014.1 |
| 20260903212821 | 97 | 90 | 5.0 | 9.0 | 0.00 | 0.00 | 0.00 | 41 | 1014.0 |
| 20260903212317 | 97 | 175 | 4.0 | 13.0 | 0.00 | 0.00 | 0.00 | 42 | 1014.2 |
| 20260903211813 | 96 | 91 | 5.0 | 13.0 | 0.00 | 0.00 | 0.00 | 43 | 1014.2 |
| 20260903211309 | 96 | 161 | 3.0 | 7.0 | 0.00 | 0.00 | 0.00 | 43 | 1014.3 |
| 20260903210809 | 96 | 144 | 3.0 | 9.0 | 0.00 | 0.00 | 0.00 | 43 | 1014.3 |
| 20260903210325 | 96 | 217 | 3.0 | 9.0 | 0.00 | 0.00 | 0.00 | 44 | 1014.4 |
| 20260903205821 | 95 | 211 | 1.0 | 9.0 | 0.00 | 0.00 | 0.00 | 45 | 1014.3 |
| 20260903205317 | 96 | 95 | 3.0 | 9.0 | 0.00 | 0.00 | 0.00 | 44 | 1014.3 |
| 20260903204814 | 97 | 63 | 2.0 | 11.0 | 0.00 | 0.00 | 0.00 | 45 | 1014.3 |
| 20260903204310 | 97 | 177 | 4.0 | 11.0 | 0.00 | 0.00 | 0.00 | 44 | 1014.4 |
| 20260903203827 | 97 | 126 | 4.0 | 7.0 | 0.00 | 0.00 | 0.00 | 44 | 1014.4 |
| 20260903203343 | 96 | 233 | 2.0 | 8.0 | 0.00 | 0.00 | 0.00 | 45 | 1014.4 |
| 20260903202838 | 96 | 103 | 4.0 | 8.0 | 0.00 | 0.00 | 0.00 | 45 | 1014.5 |
| 20260903202317 | 96 | 146 | 3.0 | 10.0 | 0.00 | 0.00 | 0.00 | 45 | 1014.5 |
| 20260903201813 | 96 | 139 | 1.0 | 6.0 | 0.00 | 0.00 | 0.00 | 45 | 1014.6 |
| 20260903201309 | 96 | 70 | 3.0 | 12.0 | 0.00 | 0.00 | 0.00 | 46 | 1014.6 |
| 20260903200825 | 96 | 113 | 2.0 | 6.0 | 0.00 | 0.00 | 0.00 | 46 | 1014.6 |
| 20260903200339 | 96 | 223 | 3.0 | 6.0 | 0.00 | 0.00 | 0.00 | 44 | 1014.8 |
| 20260903195813 | 96 | 173 | 2.0 | 10.0 | 0.00 | 0.00 | 0.00 | 44 | 1014.9 |
| 20260903195309 | 96 | 92 | 3.0 | 9.0 | 0.00 | 0.00 | 0.00 | 45 | 1015.0 |
| 20260903194846 | 96 | 98 | 3.0 | 10.0 | 0.00 | 0.00 | 0.00 | 45 | 1014.9 |
| 20260903194325 | 96 | 123 | 5.0 | 10.0 | 0.00 | 0.00 | 0.00 | 44 | 1015.0 |
| 20260903193822 | 95 | 147 | 3.0 | 10.0 | 0.00 | 0.00 | 0.00 | 44 | 1015.0 |
| 20260903193317 | 95 | 53 | 4.0 | 10.0 | 0.00 | 0.00 | 0.00 | 44 | 1015.1 |
| 20260903192814 | 95 | 151 | 2.0 | 8.0 | 0.00 | 0.00 | 0.00 | 43 | 1015.2 |
| 20260903192309 | 95 | 241 | 4.0 | 8.0 | 0.00 | 0.00 | 0.00 | 46 | 1015.2 |
| 20260903191825 | 96 | 212 | 2.0 | 12.0 | 0.00 | 0.00 | 0.00 | 43 | 1015.3 |
| 20260903191320 | 96 | 130 | 3.0 | 12.0 | 0.00 | 0.00 | 0.00 | 44 | 1015.4 |
| 20260903190818 | 95 | 223 | 5.0 | 9.0 | 0.00 | 0.00 | 0.00 | 44 | 1015.4 |
| 20260903190318 | 95 | 259 | 5.0 | 10.0 | 0.00 | 0.00 | 0.00 | 44 | 1015.6 |
| 20260903185812 | 96 | 232 | 5.0 | 9.0 | 0.00 | 0.00 | 0.00 | 45 | 1015.6 |
| 20260903185348 | 95 | 223 | 3.0 | 7.0 | 0.00 | 0.00 | 0.00 | 46 | 1015.6 |
| 20260903184822 | 94 | 146 | 3.0 | 8.0 | 0.00 | 0.00 | 0.00 | 46 | 1015.7 |
| 20260903184318 | 95 | 159 | 4.0 | 8.0 | 0.00 | 0.00 | 0.00 | 48 | 1015.8 |
| 20260903183814 | 94 | 129 | 3.0 | 8.0 | 0.00 | 0.00 | 0.00 | 47 | 1015.9 |
| 20260903183331 | 93 | 284 | 5.0 | 9.0 | 0.00 | 0.00 | 0.00 | 47 | 1016.0 |
| 20260903182826 | 94 | 216 | 3.0 | 6.0 | 0.00 | 0.00 | 0.00 | 47 | 1016.0 |
| 20260903182326 | 94 | 73 | 4.0 | 8.0 | 0.00 | 0.00 | 0.00 | 48 | 1016.0 |
| 20260903181844 | 94 | 221 | 3.0 | 7.0 | 0.00 | 0.00 | 0.00 | 47 | 1016.1 |
| 20260903181320 | 93 | 132 | 4.0 | 7.0 | 0.00 | 0.00 | 0.00 | 47 | 1016.2 |
| 20260903180816 | 93 | 231 | 4.0 | 7.0 | 0.00 | 0.00 | 0.00 | 48 | 1016.3 |
| 20260903180314 | 93 | 107 | 3.0 | 8.0 | 0.00 | 0.00 | 0.00 | 48 | 1016.3 |
| 20260903175829 | 93 | 217 | 3.0 | 9.0 | 0.00 | 0.00 | 0.00 | 47 | 1016.3 |
| 20260903175325 | 93 | 173 | 4.0 | 13.0 | 0.00 | 0.00 | 0.00 | 49 | 1016.4 |
| 20260903174821 | 93 | 215 | 4.0 | 13.0 | 0.00 | 0.00 | 0.00 | 49 | 1016.5 |
| 20260903174341 | 93 | 252 | 5.0 | 10.0 | 0.00 | 0.00 | 0.00 | 48 | 1016.6 |
| 20260903173836 | 93 | 146 | 6.0 | 10.0 | 0.00 | 0.00 | 0.00 | 48 | 1016.8 |
| 20260903173310 | 93 | 130 | 4.0 | 10.0 | 0.00 | 0.00 | 0.00 | 48 | 1016.7 |
| 20260903172826 | 92 | 202 | 4.0 | 9.0 | 0.00 | 0.00 | 0.00 | 48 | 1016.8 |
| 20260903172322 | 92 | 196 | 3.0 | 9.0 | 0.00 | 0.00 | 0.00 | 51 | 1016.8 |
| 20260903171817 | 92 | 225 | 5.0 | 9.0 | 0.00 | 0.00 | 0.00 | 50 | 1016.9 |
| 20260903171333 | 91 | 145 | 3.0 | 8.0 | 0.00 | 0.00 | 0.00 | 49 | 1016.9 |
| 20260903170849 | 91 | 219 | 5.0 | 11.0 | 0.00 | 0.00 | 0.00 | 49 | 1017.0 |
| 20260903170325 | 91 | 142 | 5.0 | 14.0 | 0.00 | 0.00 | 0.00 | 53 | 1017.0 |
| 20260903165840 | 91 | 183 | 4.0 | 14.0 | 0.00 | 0.00 | 0.00 | 53 | 1017.1 |
| 20260903165335 | 91 | 200 | 4.0 | 9.0 | 0.00 | 0.00 | 0.00 | 54 | 1017.1 |
| 20260903164814 | 91 | 218 | 5.0 | 9.0 | 0.00 | 0.00 | 0.00 | 53 | 1017.1 |
| 20260903164310 | 90 | 209 | 4.0 | 12.0 | 0.00 | 0.00 | 0.00 | 54 | 1017.1 |
| 20260903163825 | 90 | 229 | 6.0 | 12.0 | 0.00 | 0.00 | 0.00 | 54 | 1017.2 |
| 20260903163322 | 90 | 167 | 5.0 | 9.0 | 0.00 | 0.00 | 0.00 | 55 | 1017.2 |
| 20260903162818 | 89 | 198 | 3.0 | 9.0 | 0.00 | 0.00 | 0.00 | 56 | 1017.3 |
| 20260903162335 | 89 | 128 | 4.0 | 9.0 | 0.00 | 0.00 | 0.00 | 56 | 1017.3 |
| 20260903161810 | 89 | 221 | 4.0 | 11.0 | 0.00 | 0.00 | 0.00 | 55 | 1017.4 |
| 20260903161310 | 89 | 188 | 4.0 | 11.0 | 0.00 | 0.00 | 0.00 | 55 | 1017.4 |
| 20260903160824 | 89 | 235 | 4.0 | 10.0 | 0.00 | 0.00 | 0.00 | 57 | 1017.4 |
| 20260903160320 | 89 | 248 | 5.0 | 9.0 | 0.00 | 0.00 | 0.00 | 58 | 1017.4 |
| 20260903155815 | 88 | 211 | 3.0 | 9.0 | 0.00 | 0.00 | 0.00 | 57 | 1017.4 |
| 20260903155312 | 88 | 154 | 5.0 | 10.0 | 0.00 | 0.00 | 0.00 | 57 | 1017.6 |
| 20260903154809 | 88 | 254 | 5.0 | 12.0 | 0.00 | 0.00 | 0.00 | 57 | 1017.6 |
| 20260903154346 | 87 | 157 | 6.0 | 12.0 | 0.00 | 0.00 | 0.00 | 59 | 1017.6 |
| 20260903153841 | 88 | 221 | 4.0 | 10.0 | 0.00 | 0.00 | 0.00 | 59 | 1017.6 |
| 20260903153316 | 87 | 215 | 4.0 | 10.0 | 0.00 | 0.00 | 0.00 | 59 | 1017.6 |
| 20260903152816 | 87 | 138 | 4.0 | 11.0 | 0.00 | 0.00 | 0.00 | 59 | 1017.6 |
| 20260903152333 | 87 | 225 | 6.0 | 11.0 | 0.00 | 0.00 | 0.00 | 60 | 1017.6 |
| 20260903151848 | 87 | 207 | 4.0 | 10.0 | 0.00 | 0.00 | 0.00 | 60 | 1017.6 |
| 20260903151323 | 87 | 207 | 3.0 | 10.0 | 0.00 | 0.00 | 0.00 | 61 | 1017.6 |
| 20260903150819 | 86 | 193 | 5.0 | 15.0 | 0.00 | 0.00 | 0.00 | 62 | 1017.6 |
| 20260903150315 | 86 | 249 | 5.0 | 15.0 | 0.00 | 0.00 | 0.00 | 62 | 1017.6 |
| 20260903145809 | 86 | 224 | 5.0 | 10.0 | 0.00 | 0.00 | 0.00 | 62 | 1017.6 |
| 20260903145347 | 85 | 207 | 7.0 | 10.0 | 0.00 | 0.00 | 0.00 | 63 | 1017.6 |
| 20260903144822 | 85 | 217 | 4.0 | 8.0 | 0.00 | 0.00 | 0.00 | 64 | 1017.6 |
| 20260903144322 | 85 | 202 | 5.0 | 10.0 | 0.00 | 0.00 | 0.00 | 64 | 1017.6 |
| 20260903143839 | 85 | 240 | 4.0 | 10.0 | 0.00 | 0.00 | 0.00 | 64 | 1017.7 |
| 20260903143314 | 85 | 233 | 4.0 | 9.0 | 0.00 | 0.00 | 0.00 | 65 | 1017.8 |
| 20260903142850 | 84 | 212 | 4.0 | 9.0 | 0.00 | 0.00 | 0.00 | 66 | 1017.8 |
| 20260903142325 | 84 | 257 | 3.0 | 7.0 | 0.00 | 0.00 | 0.00 | 67 | 1017.8 |
| 20260903141822 | 84 | 239 | 4.0 | 7.0 | 0.00 | 0.00 | 0.00 | 68 | 1017.8 |
| 20260903141319 | 83 | 246 | 4.0 | 8.0 | 0.00 | 0.00 | 0.00 | 68 | 1017.8 |
| 20260903140815 | 83 | 210 | 4.0 | 8.0 | 0.00 | 0.00 | 0.00 | 69 | 1017.8 |
| 20260903140315 | 83 | 137 | 2.0 | 5.0 | 0.00 | 0.00 | 0.00 | 70 | 1017.9 |
| 20260903135831 | 82 | 174 | 3.0 | 5.0 | 0.00 | 0.00 | 0.00 | 71 | 1017.9 |
| 20260903135327 | 82 | 225 | 2.0 | 5.0 | 0.00 | 0.00 | 0.00 | 72 | 1018.0 |
| 20260903134823 | 82 | 249 | 2.0 | 5.0 | 0.00 | 0.00 | 0.00 | 72 | 1018.0 |
| 20260903134319 | 81 | 215 | 2.0 | 7.0 | 0.00 | 0.00 | 0.00 | 73 | 1018.0 |
| 20260903133815 | 81 | 246 | 3.0 | 7.0 | 0.00 | 0.00 | 0.00 | 73 | 1018.0 |
| 20260903133311 | 80 | 210 | 2.0 | 6.0 | 0.00 | 0.00 | 0.00 | 74 | 1018.0 |
| 20260903132848 | 80 | 226 | 2.0 | 6.0 | 0.00 | 0.00 | 0.00 | 75 | 1018.0 |
| 20260903132343 | 79 | 205 | 2.0 | 5.0 | 0.00 | 0.00 | 0.00 | 75 | 1018.0 |
| 20260903131822 | 79 | 205 | 1.0 | 4.0 | 0.00 | 0.00 | 0.00 | 75 | 1018.1 |
| 20260903131317 | 79 | 206 | 1.0 | 4.0 | 0.00 | 0.00 | 0.00 | 77 | 1018.0 |
| 20260903130813 | 78 | 208 | 1.0 | 3.0 | 0.00 | 0.00 | 0.00 | 77 | 1017.9 |
| 20260903130330 | 78 | 159 | 1.0 | 3.0 | 0.00 | 0.00 | 0.00 | 77 | 1018.0 |
| 20260903125822 | 77 | 138 | 1.0 | 5.0 | 0.00 | 0.00 | 0.00 | 78 | 1017.8 |
| 20260903125318 | 77 | 247 | 1.0 | 2.0 | 0.00 | 0.00 | 0.00 | 79 | 1017.7 |
| 20260903124835 | 77 | 162 | 1.0 | 2.0 | 0.00 | 0.00 | 0.00 | 79 | 1017.7 |
| 20260903124315 | 76 | 184 | 1.0 | 2.0 | 0.00 | 0.00 | 0.00 | 80 | 1017.7 |
| 20260903123810 | 76 | 146 | 1.0 | 2.0 | 0.00 | 0.00 | 0.00 | 81 | 1017.7 |
| 20260903123327 | 75 | 228 | 0.0 | 2.0 | 0.00 | 0.00 | 0.00 | 81 | 1017.7 |
| 20260903122824 | 75 | 232 | 0.0 | 2.0 | 0.00 | 0.00 | 0.00 | 82 | 1017.7 |
| 20260903122320 | 75 | 232 | 0.0 | 2.0 | 0.00 | 0.00 | 0.00 | 82 | 1017.8 |
| 20260903121817 | 75 | 232 | 0.0 | 2.0 | 0.00 | 0.00 | 0.00 | 82 | 1017.7 |
| 20260903121314 | 74 | 232 | 0.0 | 2.0 | 0.00 | 0.00 | 0.00 | 82 | 1017.7 |
| 20260903120830 | 74 | 153 | 0.0 | 0.0 | 0.00 | 0.00 | 0.00 | 82 | 1017.7 |
| 20260903120310 | 74 | 153 | 0.0 | 2.0 | 0.00 | 0.00 | 0.00 | 82 | 1017.7 |
| 20260903115846 | 74 | 153 | 0.0 | 2.0 | 0.00 | 0.00 | 0.00 | 82 | 1017.6 |
| 20260903115322 | 74 | 208 | 0.0 | 2.0 | 0.00 | 0.00 | 0.00 | 82 | 1017.7 |
| 20260903114838 | 74 | 208 | 0.0 | 2.0 | 0.00 | 0.00 | 0.00 | 82 | 1017.6 |
| 20260903114313 | 74 | 208 | 0.0 | 2.0 | 0.00 | 0.00 | 0.00 | 81 | 1017.6 |
| 20260903113828 | 75 | 208 | 0.0 | 0.0 | 0.00 | 0.00 | 0.00 | 81 | 1017.5 |
| 20260903113325 | 75 | 208 | 0.0 | 2.0 | 0.00 | 0.00 | 0.00 | 81 | 1017.5 |
| 20260903112842 | 75 | 208 | 0.0 | 2.0 | 0.00 | 0.00 | 0.00 | 81 | 1017.5 |
| 20260903112317 | 75 | 208 | 0.0 | 2.0 | 0.00 | 0.00 | 0.00 | 80 | 1017.5 |
| 20260903111818 | 75 | 208 | 0.0 | 2.0 | 0.00 | 0.00 | 0.00 | 80 | 1017.5 |
| 20260903111314 | 75 | 208 | 0.0 | 2.0 | 0.00 | 0.00 | 0.00 | 80 | 1017.4 |
| 20260903110810 | 76 | 208 | 0.0 | 2.0 | 0.00 | 0.00 | 0.00 | 79 | 1017.4 |
| 20260903110327 | 76 | 208 | 0.0 | 2.0 | 0.00 | 0.00 | 0.00 | 79 | 1017.4 |
| 20260903105824 | 76 | 190 | 0.0 | 2.0 | 0.00 | 0.00 | 0.00 | 79 | 1017.4 |
| 20260903105321 | 76 | 217 | 0.0 | 2.0 | 0.00 | 0.00 | 0.00 | 78 | 1017.3 |
| 20260903104818 | 76 | 210 | 1.0 | 2.0 | 0.00 | 0.00 | 0.00 | 78 | 1017.2 |
| 20260903104318 | 77 | 225 | 0.0 | 2.0 | 0.00 | 0.00 | 0.00 | 78 | 1017.1 |
| 20260903103815 | 77 | 185 | 0.0 | 3.0 | 0.00 | 0.00 | 0.00 | 77 | 1017.1 |
| 20260903103312 | 77 | 222 | 1.0 | 3.0 | 0.00 | 0.00 | 0.00 | 78 | 1017.1 |
| 20260903102829 | 76 | 209 | 1.0 | 2.0 | 0.00 | 0.00 | 0.00 | 78 | 1017.1 |
| 20260903102345 | 76 | 202 | 0.0 | 3.0 | 0.00 | 0.00 | 0.00 | 78 | 1017.1 |
| 20260903101819 | 76 | 234 | 1.0 | 3.0 | 0.00 | 0.00 | 0.00 | 78 | 1017.1 |
| 20260903101335 | 76 | 207 | 1.0 | 3.0 | 0.00 | 0.00 | 0.00 | 78 | 1017.1 |
| 20260903100810 | 76 | 211 | 1.0 | 3.0 | 0.00 | 0.00 | 0.00 | 78 | 1017.1 |
| 20260903100328 | 76 | 144 | 0.0 | 2.0 | 0.00 | 0.00 | 0.00 | 78 | 1017.2 |
| 20260903095824 | 76 | 144 | 0.0 | 2.0 | 0.00 | 0.00 | 0.00 | 78 | 1017.1 |
| 20260903095321 | 76 | 144 | 0.0 | 2.0 | 0.00 | 0.00 | 0.00 | 78 | 1017.1 |
| 20260903094817 | 76 | 119 | 0.0 | 2.0 | 0.00 | 0.00 | 0.00 | 78 | 1017.1 |
| 20260903094312 | 76 | 113 | 0.0 | 2.0 | 0.00 | 0.00 | 0.00 | 78 | 1017.0 |
| 20260903093828 | 77 | 175 | 0.0 | 4.0 | 0.00 | 0.00 | 0.00 | 77 | 1017.0 |
| 20260903093324 | 77 | 175 | 1.0 | 4.0 | 0.00 | 0.00 | 0.00 | 77 | 1017.0 |
| 20260903092820 | 77 | 144 | 0.0 | 2.0 | 0.00 | 0.00 | 0.00 | 77 | 1016.9 |
| 20260903092321 | 77 | 193 | 0.0 | 2.0 | 0.00 | 0.00 | 0.00 | 77 | 1017.0 |
| 20260903091817 | 77 | 193 | 0.0 | 2.0 | 0.00 | 0.00 | 0.00 | 77 | 1016.9 |
| 20260903091313 | 77 | 187 | 0.0 | 2.0 | 0.00 | 0.00 | 0.00 | 77 | 1016.9 |
| 20260903090849 | 77 | 99 | 0.0 | 2.0 | 0.00 | 0.00 | 0.00 | 77 | 1016.9 |
| 20260903090324 | 77 | 237 | 0.0 | 2.0 | 0.00 | 0.00 | 0.00 | 76 | 1016.9 |
| 20260903085840 | 77 | 158 | 0.0 | 2.0 | 0.00 | 0.00 | 0.00 | 76 | 1016.9 |
| 20260903085335 | 77 | 191 | 0.0 | 2.0 | 0.00 | 0.00 | 0.00 | 76 | 1016.9 |
| 20260903084850 | 77 | 148 | 0.0 | 2.0 | 0.00 | 0.00 | 0.00 | 76 | 1016.9 |
| 20260903084325 | 77 | 181 | 1.0 | 4.0 | 0.00 | 0.00 | 0.00 | 76 | 1016.9 |
| 20260903083841 | 77 | 204 | 1.0 | 4.0 | 0.00 | 0.00 | 0.00 | 75 | 1016.8 |